Newark Heath, OH

9:07 AM EDT on September 24, 2017 (GMT -0400)
Newark Heath

Weather History for KVTA - July, 2013

Change the Weather History Date:

Monday, July 22, 2013

  Actual Average Record
Temperature  
Mean Temperature 70 °F -  
Max Temperature 75 °F 85 °F 97 °F (1952)
Min Temperature 66 °F 62 °F 45 °F (1936)
Cooling Degree Days 6    
Growing Degree Days 20 (Base 50)    
Moisture  
Dew Point 68 °F    
Average Humidity 89    
Maximum Humidity 100    
Minimum Humidity 78    
Precipitation  
Precipitation 2.24 in - - ()
Sea Level Pressure  
Sea Level Pressure 29.87 in    
Wind  
Wind Speed 3 mph (North)    
Max Wind Speed 14 mph    
Max Gust Speed -    
Visibility 6 miles    
Events Fog , Rain    
Averages and records for this station are not official NWS values.
T = Trace of Precipitation, MM = Missing Value Source: NWS Daily Summary

Daily Weather History Graph

Daily Weather History Graph

Search for Another Location

Airport or City:

Trip Planner

Search our weather history database for the weather conditions in past years. The results will help you decide how hot, cold, wet, or windy it might be!

Date:

Astronomy

Jul. 22, 2013 Rise Set
Actual Time 6:19 AM EDT 8:52 PM EDT
Civil Twilight 5:48 AM EDT 9:23 PM EDT
Nautical Twilight 5:09 AM EDT 10:02 PM EDT
Astronomical Twilight 4:25 AM EDT 10:45 PM EDT
Moon 8:37 PM EDT (7/22) 6:14 AM EDT (7/22)
Length of Visible Light 15h 35m
Length of Day
14h 33m
Full, 100% of the Moon is Illuminated
Jul 22
Full
Jul 22
Full
Jul 29
Last Quarter
Aug 6
New
Aug 14
First Quarter

Hourly Weather History & Observations

Time (EDT) Temp. Dew Point Humidity Pressure Visibility Wind Dir Wind Speed Gust Speed Precip Events Conditions
12:54 AM 73.0 °F 66.9 °F 81% 29.94 in 10.0 mi NE 3.5 mph - N/A   Clear
1:54 AM 73.0 °F 66.9 °F 81% 29.92 in 10.0 mi Calm Calm - N/A   Mostly Cloudy
2:07 AM 73.4 °F 66.2 °F 78% 29.94 in 10.0 mi Calm Calm - N/A   Mostly Cloudy
2:16 AM 71.6 °F 66.2 °F 83% 29.93 in 10.0 mi Calm Calm - N/A   Scattered Clouds
2:54 AM 72.0 °F 66.9 °F 84% 29.90 in 10.0 mi NNE 3.5 mph - N/A   Scattered Clouds
3:54 AM 71.1 °F 66.9 °F 87% 29.88 in 10.0 mi NE 3.5 mph - N/A   Clear
4:54 AM 70.0 °F 66.0 °F 87% 29.88 in 10.0 mi Calm Calm - N/A   Clear
5:54 AM 70.0 °F 66.0 °F 87% 29.88 in 10.0 mi Calm Calm - N/A   Clear
6:54 AM 70.0 °F 66.9 °F 90% 29.88 in 9.0 mi Calm Calm - N/A   Scattered Clouds
7:54 AM 71.1 °F 66.9 °F 87% 29.87 in 8.0 mi Calm Calm - 0.00 in   Mostly Cloudy
8:54 AM 72.0 °F 69.1 °F 91% 29.87 in 8.0 mi Calm Calm - 0.00 in Rain Light Rain
9:34 AM 71.6 °F 69.8 °F 94% 29.89 in 7.0 mi ESE 4.6 mph - 0.00 in Rain Light Rain
9:54 AM 73.0 °F 70.0 °F 90% 29.86 in 6.0 mi East 4.6 mph - 0.00 in Rain Light Rain
10:09 AM 73.4 °F 69.8 °F 88% 29.88 in 6.0 mi Calm Calm - 0.00 in Rain Light Rain
10:46 AM 71.6 °F 69.8 °F 94% 29.88 in 2.0 mi East 5.8 mph - 0.06 in Rain Rain
10:54 AM 72.0 °F 71.1 °F 97% 29.85 in 1.8 mi East 9.2 mph - 0.08 in Rain Light Rain
10:59 AM 71.6 °F 69.8 °F 94% 29.86 in 3.0 mi ENE 5.8 mph - 0.00 in Rain Light Rain
11:06 AM 71.6 °F 69.8 °F 94% 29.86 in 4.0 mi NE 3.5 mph - 0.01 in Rain Light Rain
11:14 AM 71.6 °F 69.8 °F 94% 29.86 in 1.8 mi NNW 3.5 mph - 0.06 in Rain Rain
11:17 AM 71.6 °F 69.8 °F 94% 29.87 in 1.2 mi WNW 3.5 mph - 0.11 in Rain Heavy Rain
11:35 AM 68.0 °F 66.2 °F 94% 29.88 in 0.8 mi West 13.8 mph - 0.57 in Rain Heavy Rain
11:44 AM 66.2 °F 66.2 °F 100% 29.89 in 0.2 mi West 9.2 mph - 0.95 in Fog , Rain Heavy Rain
11:54 AM 68.0 °F 66.0 °F 93% 29.86 in 0.2 mi NNW 6.9 mph - 1.44 in Fog , Rain Heavy Rain
12:03 PM 68.0 °F 66.2 °F 94% 29.88 in 0.5 mi NNW 5.8 mph - 0.19 in Fog , Rain Heavy Rain
12:12 PM 68.0 °F 66.2 °F 94% 29.87 in 0.5 mi North 6.9 mph - 0.43 in Fog , Rain Heavy Rain
12:21 PM 68.0 °F 66.2 °F 94% 29.87 in 1.0 mi North 4.6 mph - 0.51 in Rain Rain
12:42 PM 69.8 °F 68.0 °F 94% 29.87 in 3.0 mi NNW 3.5 mph - 0.72 in Rain Light Rain
12:54 PM 70.0 °F 68.0 °F 93% 29.85 in 10.0 mi NNE 3.5 mph - 0.72 in   Overcast
1:22 PM 71.6 °F 69.8 °F 94% 29.85 in 10.0 mi Calm Calm - N/A   Scattered Clouds
1:36 PM 73.4 °F 69.8 °F 88% 29.85 in 10.0 mi Calm Calm - N/A   Mostly Cloudy
1:54 PM 75.0 °F 70.0 °F 84% 29.82 in 10.0 mi WSW 10.4 mph - N/A   Overcast
2:09 PM 75.2 °F 69.8 °F 83% 29.84 in 10.0 mi WSW 6.9 mph - N/A   Mostly Cloudy
2:18 PM 75.2 °F 69.8 °F 83% 29.83 in 10.0 mi WSW 5.8 mph - N/A   Mostly Cloudy
2:54 PM 75.0 °F 69.1 °F 82% 29.81 in 10.0 mi WSW 8.1 mph - N/A   Mostly Cloudy
3:18 PM 75.2 °F 69.8 °F 83% 29.83 in 10.0 mi WSW 8.1 mph - N/A   Mostly Cloudy